Weather History for YPXM - January, 2013

Change the Weather History Date:

Sunday, January 13, 2013

  Actual Average Record
Temperature  
Mean Temperature 78 °F -  
Max Temperature 84 °F 80 °F 84 °F (2013)
Min Temperature 73 °F 71 °F 69 °F (2000)
Cooling Degree Days 14    
Growing Degree Days 28 (Base 50)    
Moisture  
Dew Point 72 °F    
Average Humidity 80    
Maximum Humidity 95    
Minimum Humidity 62    
Precipitation  
Precipitation 0.00 in - - ()
Sea Level Pressure  
Sea Level Pressure 29.77 in    
Wind  
Wind Speed 5 mph ()    
Max Wind Speed 9 mph    
Max Gust Speed 29 mph    
Visibility 6.1 miles    
Events Rain    
Averages and records for this station are not official NWS values.
T = Trace of Precipitation, MM = Missing Value Source: Averaged Metar Reports

Daily Weather History Graph

Daily Weather History Graph

Search for Another Location

Airport or City:

Trip Planner

Search our weather history database for the weather conditions in past years. The results will help you decide how hot, cold, wet, or windy it might be!

Date:

Astronomy

Jan. 13, 2013 Rise Set
Actual Time 5:45 AM CXT 6:26 PM CXT
Civil Twilight 5:22 AM CXT 6:48 PM CXT
Nautical Twilight 4:56 AM CXT 7:15 PM CXT
Astronomical Twilight 4:28 AM CXT 7:42 PM CXT
Moon 6:58 AM CXT (1/13) 7:43 PM CXT (1/13)
Length of Visible Light 13h 26m
Length of Day
12h 40m
Waxing Crescent, 3% of the Moon is Illuminated
Jan 13
Waxing Crescent
Jan 19
First Quarter
Jan 27
Full
Feb 3
Last Quarter
Feb 10
New

Hourly Weather History & Observations

Time (CXT) Temp. Heat Index Dew Point Humidity Pressure Visibility Wind Dir Wind Speed Gust Speed Precip Events Conditions
12:00 AM 75 °F - 73 °F 91% 29.77 in - West 4.6 mph - -  
12:00 AM 75.2 °F - 73.4 °F 94% 29.80 in 6.2 mi West 4.6 mph - N/A   Overcast
1:00 AM 75 °F - 73 °F 92% 29.75 in - West 4.6 mph - -  
1:00 AM 75.2 °F - 73.4 °F 94% 29.80 in 6.2 mi West 4.6 mph - N/A   Overcast
2:00 AM 75.2 °F - 73.4 °F 94% 29.80 in 3.7 mi West 4.6 mph - N/A Rain Light Rain Showers
2:11 AM 75.2 °F - 73.4 °F 94% 29.80 in 6.2 mi WSW 4.6 mph - N/A Rain Light Rain Showers
3:00 AM 75 °F - 72 °F 89% 29.75 in - West 4.6 mph - -   Overcast
3:00 AM 75.2 °F - 73.4 °F 94% 29.77 in 6.2 mi West 4.6 mph - N/A   Overcast
4:00 AM 75 °F - 74 °F 95% 29.74 in - West 4.6 mph - -  
4:00 AM 75.2 °F - 73.4 °F 94% 29.77 in 6.2 mi West 4.6 mph - N/A   Overcast
5:00 AM 75.2 °F - 73.4 °F 94% 29.80 in 6.2 mi West 3.5 mph 28.8 mph N/A   Overcast
6:00 AM 75 °F - 72 °F 87% 29.77 in - WSW 5.8 mph - -  
6:00 AM 75.2 °F - 71.6 °F 89% 29.80 in 6.2 mi WSW 5.8 mph - N/A   Overcast
7:00 AM 77 °F - 72 °F 81% 29.77 in - WSW 5.8 mph - -  
7:00 AM 77.0 °F - 71.6 °F 83% 29.80 in 6.2 mi WSW 5.8 mph - N/A   Mostly Cloudy
8:00 AM 80.6 °F 85.4 °F 73.4 °F 79% 29.80 in 6.2 mi WSW 6.9 mph - N/A   Unknown
9:00 AM 81 °F - 72 °F 67% 29.78 in - WSW 8.1 mph - -  
9:00 AM 80.6 °F 84.6 °F 71.6 °F 74% 29.80 in 6.2 mi WSW 8.1 mph - N/A   Mostly Cloudy
10:00 AM 82 °F - 72 °F 64% 29.78 in - West 4.6 mph - -  
10:00 AM 82.4 °F 87.2 °F 71.6 °F 70% 29.80 in 6.2 mi West 4.6 mph - N/A   Mostly Cloudy
11:00 AM 82.4 °F 87.2 °F 71.6 °F 70% 29.80 in 6.2 mi SW 9.2 mph - N/A   Mostly Cloudy
12:00 PM 82.4 °F 88.2 °F 73.4 °F 74% 29.80 in 6.2 mi WSW 6.9 mph - N/A   Mostly Cloudy
1:00 PM 82 °F - 71 °F 62% 29.75 in - WNW 8.1 mph - -  
1:00 PM 82.4 °F 87.2 °F 71.6 °F 70% 29.80 in 6.2 mi WNW 8.1 mph - N/A   Unknown
2:00 PM 82.4 °F 87.2 °F 71.6 °F 70% 29.77 in 6.2 mi WNW 8.1 mph - N/A   Unknown
3:00 PM 83 °F - 72 °F 62% 29.72 in - WNW 8.1 mph - -  
3:00 PM 82.4 °F 87.2 °F 71.6 °F 70% 29.74 in 6.2 mi WNW 8.1 mph - N/A   Unknown
4:00 PM 82 °F - 72 °F 66% 29.71 in - WNW 8.1 mph - -  
4:00 PM 82.4 °F 88.2 °F 73.4 °F 74% 29.74 in 6.2 mi WNW 8.1 mph - N/A   Unknown
5:00 PM 80.6 °F 84.6 °F 71.6 °F 74% 29.74 in 6.2 mi WNW 6.9 mph - N/A   Scattered Clouds
6:00 PM 79 °F - 71 °F 71% 29.72 in - WNW 6.9 mph - -  
6:00 PM 78.8 °F - 71.6 °F 78% 29.74 in 6.2 mi WNW 6.9 mph - N/A   Scattered Clouds
7:00 PM 78 °F - 71 °F 75% 29.75 in - WNW 5.8 mph - -  
7:00 PM 78.8 °F - 71.6 °F 78% 29.77 in 6.2 mi WNW 5.8 mph - N/A   Scattered Clouds
8:00 PM 77.0 °F - 71.6 °F 83% 29.80 in 6.2 mi WNW 4.6 mph - N/A   Scattered Clouds
9:00 PM 78 °F - 71 °F 74% 29.78 in - WNW 5.8 mph - -  
9:00 PM 77.0 °F - 71.6 °F 83% 29.80 in 6.2 mi WNW 5.8 mph - N/A   Mostly Cloudy
10:00 PM 78 °F - 72 °F 77% 29.78 in - NW 5.8 mph - -  
10:00 PM 77.0 °F - 71.6 °F 83% 29.80 in 6.2 mi NW 5.8 mph - N/A   Mostly Cloudy
11:00 PM 77.0 °F - 71.6 °F 83% 29.80 in 6.2 mi West 5.8 mph - N/A   Mostly Cloudy